Weather History for Elizabethtown, NC

Change the Weather History Date:

Wednesday, February 27, 2013

  Actual Average (KILM) Record (KILM)
Temperature  
Mean Temperature 52 °F 51 °F  
Max Temperature 59 °F 62 °F 82 °F (1962)
Min Temperature 44 °F 40 °F 17 °F (1963)
Degree Days  
Heating Degree Days 14 14  
Month to date heating degree days 440  
Since 1 July heating degree days 1915  
Cooling Degree Days 0 0  
Month to date cooling degree days 0  
Year to date cooling degree days 2  
Growing Degree Days 2 (Base 50)    
Moisture  
Dew Point 41 °F    
Average Humidity 69    
Maximum Humidity 94    
Minimum Humidity 47    
Precipitation  
Precipitation 0.00 in 0.13 in 1.34 in (1899)
Month to date precipitation 3.49  
Year to date precipitation 7.25  
Snow  
Snow 0.00 in 0.00 in 0.60 in (1963)
Month to date snowfall 0.3  
Since 1 July snowfall 1.5  
Snow Depth -    
Sea Level Pressure  
Sea Level Pressure 29.77 in    
Wind  
Wind Speed 7 mph (WSW)    
Max Wind Speed 14 mph    
Max Gust Speed 20 mph    
Visibility 10 miles    
Events      
T = Trace of Precipitation, MM = Missing Value Source: NWS Daily Summary

Daily Weather History Graph

Daily Weather History Graph

Search for Another Location

Airport:

Trip Planner

Search our weather history database for the weather conditions in past years. The results will help you decide how hot, cold, wet, or windy it might be!

Date:

Astronomy

Feb. 27, 2013 Rise Set
Actual Time 6:45 AM EST 6:08 PM EST
Civil Twilight 6:20 AM EST 6:34 PM EST
Nautical Twilight 5:51 AM EST 7:03 PM EST
Astronomical Twilight 5:21 AM EST 7:32 PM EST
Moon 8:19 PM EST (2/27) 7:26 AM EST (2/27)
Length of Visible Light 12h 13m
Length of Day
11h 23m
Waning Gibbous, 96% of the Moon is Illuminated
Feb 27
Waning Gibbous
Mar 4
Last Quarter
Mar 11
New
Mar 19
First Quarter
Mar 27
Full

Hourly Weather History & Observations

Time (EST) Temp. Windchill Dew Point Humidity Pressure Visibility Wind Dir Wind Speed Gust Speed Precip Events Conditions
12:15 AM 54.0 °F - 51.8 °F 92% 29.66 in 10.0 mi Calm Calm - N/A   Clear
12:35 AM 53.4 °F - 51.4 °F 93% 29.67 in 10.0 mi WSW 4.6 mph - N/A   Clear
12:55 AM 52.3 °F - 49.6 °F 91% 29.67 in 10.0 mi WSW 3.5 mph - N/A   Clear
1:15 AM 52.0 °F - 49.3 °F 90% 29.69 in 10.0 mi WSW 4.6 mph - N/A   Clear
1:35 AM 51.1 °F - 48.4 °F 90% 29.70 in 10.0 mi SW 5.8 mph - N/A   Clear
1:55 AM 50.9 °F - 48.2 °F 90% 29.70 in 10.0 mi SW 4.6 mph - N/A   Clear
2:35 AM 50.0 °F - 48.2 °F 94% 29.70 in 10.0 mi WSW 9.2 mph - N/A   Clear
2:55 AM 49.6 °F - 46.6 °F 89% 29.72 in 10.0 mi West 11.5 mph - N/A   Clear
3:15 AM 49.1 °F - 44.4 °F 84% 29.71 in 10.0 mi West 9.2 mph - N/A   Clear
3:35 AM 48.6 °F - 42.8 °F 80% 29.71 in 10.0 mi WSW 9.2 mph 16.1 mph N/A   Clear
3:55 AM 47.8 °F - 41.9 °F 80% 29.71 in 10.0 mi WSW 6.9 mph - N/A   Clear
4:15 AM 47.3 °F - 41.5 °F 80% 29.71 in 10.0 mi WSW 6.9 mph - N/A   Clear
4:35 AM 46.9 °F - 41.4 °F 81% 29.71 in 10.0 mi WSW 8.1 mph - N/A   Clear
4:55 AM 46.9 °F - 41.0 °F 80% 29.72 in 10.0 mi WSW 8.1 mph - N/A   Clear
5:15 AM 46.8 °F - 40.3 °F 78% 29.72 in 10.0 mi SW 11.5 mph - N/A   Clear
5:35 AM 46.6 °F - 39.7 °F 77% 29.73 in 10.0 mi WSW 9.2 mph 17.3 mph N/A   Clear
5:55 AM 46.0 °F 41.4 °F 39.4 °F 78% 29.74 in 10.0 mi WSW 9.2 mph - N/A   Clear
6:15 AM 45.5 °F 40.8 °F 38.7 °F 77% 29.75 in 10.0 mi WSW 9.2 mph 17.3 mph N/A   Clear
6:35 AM 45.1 °F 39.9 °F 38.7 °F 78% 29.76 in 10.0 mi WSW 10.4 mph - N/A   Clear
6:55 AM 44.6 °F 39.7 °F 38.3 °F 79% 29.77 in 10.0 mi WSW 9.2 mph - N/A   Clear
7:35 AM 44.2 °F 39.7 °F 38.1 °F 79% 29.79 in 10.0 mi WSW 8.1 mph - N/A   Clear
7:55 AM 44.6 °F 39.2 °F 38.1 °F 78% 29.80 in 10.0 mi WSW 10.4 mph - N/A   Clear
8:15 AM 45.0 °F 41.2 °F 38.3 °F 77% 29.81 in 10.0 mi WSW 6.9 mph - N/A   Clear
8:35 AM 45.3 °F 41.1 °F 38.5 °F 77% 29.82 in 10.0 mi WSW 8.1 mph - N/A   Clear
9:15 AM 47.1 °F - 38.3 °F 71% 29.83 in 10.0 mi West 11.5 mph - N/A   Clear
9:35 AM 48.7 °F - 38.7 °F 68% 29.83 in 10.0 mi West 11.5 mph 19.6 mph N/A   Clear
9:55 AM 49.3 °F - 38.5 °F 66% 29.84 in 10.0 mi West 13.8 mph - N/A   Clear
10:15 AM 50.2 °F - 38.7 °F 65% 29.85 in 10.0 mi WSW 13.8 mph 18.4 mph N/A   Clear
10:35 AM 50.9 °F - 38.3 °F 62% 29.84 in 10.0 mi West 11.5 mph 18.4 mph N/A   Scattered Clouds
10:55 AM 50.5 °F - 38.3 °F 63% 29.84 in 10.0 mi West 11.5 mph - N/A   Clear
11:15 AM 52.2 °F - 38.5 °F 60% 29.83 in 10.0 mi WNW 9.2 mph - N/A   Clear
11:35 AM 52.2 °F - 38.7 °F 60% 29.83 in 10.0 mi WSW 6.9 mph - N/A   Clear
11:55 AM 54.0 °F - 38.5 °F 56% 29.83 in 10.0 mi WSW 8.1 mph - N/A   Clear
12:15 PM 54.0 °F - 38.3 °F 55% 29.82 in 10.0 mi West 9.2 mph - N/A   Clear
12:35 PM 55.0 °F - 38.8 °F 54% 29.80 in 10.0 mi West 4.6 mph - N/A   Clear
12:55 PM 55.4 °F - 39.2 °F 54% 29.80 in 10.0 mi WSW 10.4 mph - N/A   Clear
1:15 PM 56.3 °F - 38.8 °F 52% 29.80 in 10.0 mi West 13.8 mph 17.3 mph N/A   Clear
1:35 PM 56.8 °F - 38.1 °F 50% 29.78 in 10.0 mi WSW 4.6 mph - N/A   Clear
1:55 PM 58.1 °F - 39.0 °F 49% 29.78 in 10.0 mi West 8.1 mph - N/A   Clear
2:15 PM 58.3 °F - 38.5 °F 48% 29.78 in 10.0 mi West 9.2 mph - N/A   Clear
2:35 PM 58.6 °F - 38.5 °F 47% 29.78 in 10.0 mi West 5.8 mph - N/A   Clear
2:55 PM 59.2 °F - 38.8 °F 47% 29.78 in 10.0 mi West 10.4 mph - N/A   Clear
3:15 PM 59.2 °F - 38.7 °F 47% 29.77 in 10.0 mi WSW 9.2 mph - N/A   Clear
3:35 PM 59.4 °F - 38.8 °F 47% 29.78 in 10.0 mi WSW 6.9 mph - N/A   Clear
3:55 PM 58.5 °F - 38.8 °F 48% 29.77 in 10.0 mi WSW 5.8 mph - N/A   Clear
4:15 PM 58.8 °F - 38.7 °F 47% 29.77 in 10.0 mi SW 8.1 mph - N/A   Clear
4:35 PM 59.2 °F - 38.7 °F 47% 29.76 in 10.0 mi SW 9.2 mph - N/A   Clear
5:15 PM 58.3 °F - 39.2 °F 49% 29.75 in 10.0 mi SW 6.9 mph - N/A   Clear
5:35 PM 57.9 °F - 39.4 °F 50% 29.76 in 10.0 mi SW 6.9 mph - N/A   Clear
6:15 PM 55.4 °F - 40.8 °F 58% 29.77 in 10.0 mi SSW 3.5 mph - N/A   Clear
6:35 PM 54.5 °F - 40.5 °F 59% 29.77 in 10.0 mi SSW 4.6 mph - N/A   Clear
6:55 PM 53.6 °F - 40.6 °F 62% 29.77 in 10.0 mi SSW 3.5 mph - N/A   Clear
7:15 PM 52.5 °F - 40.3 °F 63% 29.77 in 10.0 mi SW 3.5 mph - N/A   Clear
7:35 PM 52.2 °F - 40.1 °F 64% 29.77 in 10.0 mi SW 3.5 mph - N/A   Clear
7:55 PM 50.9 °F - 40.3 °F 67% 29.77 in 10.0 mi SSW 3.5 mph - N/A   Clear
8:15 PM 50.5 °F - 40.3 °F 68% 29.77 in 10.0 mi SSW 3.5 mph - N/A   Clear
8:35 PM 50.4 °F - 40.6 °F 69% 29.77 in 10.0 mi SSW 3.5 mph - N/A   Clear
9:15 PM 48.6 °F - 41.0 °F 75% 29.77 in 10.0 mi South 3.5 mph - N/A   Clear
9:35 PM 48.4 °F - 41.0 °F 76% 29.77 in 10.0 mi SSW 3.5 mph - N/A   Clear
9:55 PM 48.6 °F - 41.0 °F 75% 29.78 in 10.0 mi SSW 4.6 mph - N/A   Clear
10:15 PM 49.3 °F - 41.0 °F 73% 29.77 in 10.0 mi SW 6.9 mph - N/A   Clear
10:35 PM 48.9 °F - 41.0 °F 74% 29.77 in 10.0 mi SW 5.8 mph - N/A   Clear
10:55 PM 48.6 °F - 41.0 °F 75% 29.77 in 10.0 mi SW 4.6 mph - N/A   Clear
11:55 PM 46.8 °F - 40.5 °F 79% 29.75 in 10.0 mi SSW 3.5 mph - N/A   Clear